sat.trackr.live / text

‹ back to catalog

NEONSAT-1

NORAD 59587 · 2024-077A

PAYLOAD ACTIVE UNKNOWN

§ Identity

Operator
Country
SKOR
Launch date
2024-04-23
Launch site
RLLB
Launch vehicle
Mass (kg)
RCS (m²)

External: N2YO · Heavens-Above · Gunter

§ Orbital elements

Epoch: 2026-05-25T04:17:04.636032Z

Period
93.64 min
Inclination
97.3488°
Eccentricity
0.0010140
Mean motion
15.37784820 rev/d
Perigee alt
445.7 km
Apogee alt
459.6 km
Semi-major
6,830.8 km
B*
4.1381e-4
RAAN
229.1607°
Arg perigee
116.3461°
Mean anomaly
243.8827°
Rev number
11,619

§ Raw data

NEONSAT-11 59587U 24077A   26145.17852588  .00015317  00000+0  41381-3 0  99922 59587  97.3488 229.1607 0010140 116.3461 243.8827 15.37784820116197

JSON: /api/v1/satellites/59587 · /tle

For live sub-satellite position, see the globe view (requires WebGL).

§ Visibility from observer

Set your observer location to see the next 7 days of passes ≥ 10°. The values pass through the URL so the page stays shareable.

No JS? Fill the form by hand. The geolocation button needs JavaScript.

§ Radio — SatNOGS DB

ModeDescriptionDownlinkUplink
FM Mode S 2.243 GHz

1 transmitter · refreshed weekly from db.satnogs.org